Home > Weather > Saint-Pierre > Past weeks

Flag for Saint Pierre and Miquelon Weather for the Past 2 Weeks in Saint-Pierre, Saint Pierre and Miquelon

Now
43 °F

Sunny.


Feels Like: 36 °F
Forecast: N/A
Wind: 13 mph from West

Location: Saint-Pierre

Current Time: May 2, 2016 at 7:27:47 PM

Latest Report: May 2, 2016 at 7:00 PM


Visibility: 10 mi

Pressure: 30.27 "Hg

Humidity: 66%

Dew Point: 32 °F

Location of Saint-PierreLocation

Historic Weather in Saint-Pierre — Graph

°F

Saint-Pierre Temperature Yesterday

Maximum temperature yesterday: 46 °F (at 4:00 PM)
Minimum temperature yesterday: 34 °F (at 6:00 AM)
Average temperature yesterday: 42 °F

High & Low Weather Summary for the Past Weeks

 TemperatureHumidityPressure
High54 °F (Apr 22, 4:00 PM)100% (Apr 18, 6:00 AM)30.33 "Hg (Apr 18, 6:00 AM)
Low28 °F (Apr 24, 6:00 AM)41% (May 2, 3:00 PM)29.36 "Hg (Apr 21, 1:00 PM)
Average38 °F75%29.87 "Hg
* Reported Apr 17 6:00 PM — May 2 6:00 PM, Saint-Pierre, Weather by CustomWeather, © 2016

Note: Actual official high and low records may vary slightly from our data, if they occured in-between our weather recording intervals... More about our weather records

Advertising

Saint-Pierre Weather History for the Previous 24 Hours

Scroll right to see more
 ConditionsComfort  
Time TempWeatherWind HumidityBarometerVisibility
6:00 PM
Mon, May 2
45 °FSunny.14 mph71%30.27 "Hg10 mi
5:00 PM48 °FPassing clouds.14 mph62%30.27 "HgN/A
4:00 PM50 °FPassing clouds.16 mph58%30.27 "HgN/A
3:00 PM54 °FSunny.16 mph41%30.27 "Hg10 mi
2:00 PM52 °FPassing clouds.13 mph44%30.27 "HgN/A
1:00 PM48 °FPassing clouds.13 mph54%30.27 "HgN/A
12:00 PM46 °FSunny.16 mph62%30.27 "Hg10 mi
11:00 AM45 °FSunny.17 mph61%30.27 "Hg10 mi
10:00 AM43 °FPassing clouds.14 mph66%30.24 "HgN/A
9:00 AM41 °FSunny.15 mph76%30.27 "Hg10 mi
8:00 AM41 °FSunny.10 mph76%30.24 "Hg10 mi
7:00 AM37 °FPassing clouds.13 mph81%30.24 "HgN/A
6:00 AM39 °FClear.13 mph70%30.21 "Hg10 mi
1:00 AM36 °FClear.10 mph87%30.27 "Hg10 mi
12:00 AM37 °FClear.5 mph70%30.27 "Hg10 mi
11:00 PM
Sun, May 1
37 °FPassing clouds.3 mph60%30.27 "HgN/A
10:00 PM37 °FClear.5 mph60%30.27 "Hg10 mi
9:00 PM39 °FSunny.5 mph61%30.30 "Hg10 mi
8:00 PM43 °FSunny.7 mph49%30.27 "Hg10 mi
7:00 PM46 °FSunny.6 mph43%30.30 "Hg10 mi
Weather by CustomWeather, © 2016

See weather overviewHow to use our weather pages